User: anonymous   Login
Location: Hopkins Observatory
(42.6965°N, 73.1843°W)
Time: 18:19:22
(UTC-04:00)
Language:

UOSAT-12 - Orbit

View from above orbital plane
View from above orbital plane
View from above satellite
View from above satellite

Ground track
Ground track

The orbit data is extracted from the following two-line orbital elements,

1 25693U 99021A   15243.72911860  .00000098  00000-0  31574-4 0  9996
2 25693  64.5575 345.5073 0036532 231.2258 291.7862 14.80501402883120
Epoch (UTC): 31 August 2015 17:29:55
Eccentricity: 0.0036532
inclination: 64.5575°
perigee height: 602 km
apogee height: 653 km
right ascension of ascending node: 345.5073°
argument of perigee: 231.2258°
revolutions per day: 14.80501402
mean anomaly at epoch: 291.7862°
orbit number at epoch: 88312

The dashed part of the orbit path shows where the satellite is in the earth's shadow,  

DLR